Location: Gerlach
(40.6516°N, 119.3568°W)
Time: 16:04:47
(UTC-07:00)

ITAMSAT 1 - Pass Details

Date: 06 August 2024
Orbit: 782 x 795 km, 98.8° (Epoch: 14 September)

Event Time Altitude Azimuth Distance (km) Brightness Sun altitude
Exits shadow 22:12:34 15° 199° (SSW) 2,041 9.5 -20.7°
Maximum altitude 22:16:29 38° 262° (W) 1,204 8.9 -21.2°
Drops below altitude 10° 22:21:19 10° 330° (NNW) 2,368 11.2 -21.8°
Sets 22:23:50 0° 338° (NNW) 3,304 12.1 -22.1°
